Tracking 30306 objects as of 23-Apr-2025
HD Live streaming from Space Station
objects crossing your sky now

SL-14 R/B

Track SL-14 R/B now!
10-day predictions


NORAD ID: 11087
Int'l Code: 1978-100D
Perigee: 1,693.2 km
Apogee: 1,709.5 km
Inclination: 82.5 °
Period: 120.3 minutes
Semi major axis: 8072 km
RCS: 5.2593 m2 (large)
Launch date: October 26, 1978
Source: Commonwealth of Independent States (former USSR) (CIS)
Launch site: PLESETSK MISSILE AND SPACE COMPLEX (PKMTR)

Note: This is a ROCKET BODY
Your satellite tracking list
Your tracking list is empty




NASA's NSSDC Master Catalog

Two Line Element Set (TLE):
1 11087U 78100D   25112.97303325 -.00000011  00000-0 -24770-3 0  9993
2 11087  82.5441 274.3229 0010105  69.3567  48.7681 11.97033347 31483
Source of the keplerian elements: AFSPC